Theta_e
332 336 340 340 340 341 342 342 342 343 344 344 343 339 340 338 339 338 340 341 340 338 337 337 335 335 336 334 336 337 337 338 340 340 339 340 339 340 342 341 339 341 338 341 341 342 340 340 338 338 340 338 339 339 339 338 340 340 342 336 333 334 333 336 336 334 329 328 332 333 333 335 335 335 333 332 331 336 338 336 334 335 334 336 335
330 334 339 339 339 340 342 342 340 340 341 342 341 341 341 340 340 339 340 340 339 340 337 339 340 338 335 334 336 337 336 336 336 337 337 338 338 338 340 341 340 339 341 342 342 342 340 341 336 335 338 340 340 341 341 339 340 338 337 336 335 336 335 340 337 331 329 326 324 327 331 334 334 334 336 332 334 333 334 335 337 335 335 335 335
323 331 335 338 338 339 340 339 339 341 341 342 342 342 341 341 341 340 339 339 340 340 339 338 339 339 337 336 335 339 339 337 338 337 338 339 338 338 338 339 337 339 341 340 341 340 338 336 334 334 338 339 340 339 338 340 339 339 338 334 333 335 336 338 337 336 327 329 328 325 321 321 326 332 333 333 331 334 333 333 333 334 333 334 334
322 329 336 337 338 339 338 338 338 339 340 341 341 341 341 339 341 341 341 341 339 339 339 341 340 341 340 340 339 339 337 335 336 337 338 336 336 336 336 340 340 341 339 339 339 336 334 334 335 337 337 340 339 338 338 336 338 337 337 335 333 329 334 333 336 332 333 327 321 322 321 322 317 321 326 328 331 331 331 331 332 332 332 333 333
327 328 334 336 336 336 337 337 338 338 339 340 340 340 339 339 340 341 340 341 339 338 339 338 339 339 338 338 339 337 337 334 331 331 332 334 334 333 336 338 339 339 336 337 338 336 336 338 336 338 338 340 338 337 337 336 337 340 337 336 335 330 329 331 331 333 333 335 327 322 321 318 318 321 323 324 330 327 328 330 332 330 330 330 327
329 329 333 335 336 336 337 337 337 338 339 341 341 340 340 340 341 340 341 339 338 337 339 338 337 337 334 332 331 330 329 329 327 330 329 329 334 335 337 337 337 337 335 336 335 336 338 340 340 338 340 339 340 339 338 336 336 338 338 338 335 331 332 331 331 333 335 334 334 334 328 320 319 322 322 317 328 329 328 328 330 331 329 327 324
326 324 329 333 335 335 336 336 336 338 339 341 341 341 341 340 340 341 340 339 338 337 338 338 337 336 336 335 334 332 330 332 334 339 335 334 335 338 337 338 337 338 338 339 338 338 339 338 339 338 337 338 338 339 340 336 336 334 336 336 336 334 334 329 330 328 332 335 335 335 334 333 328 322 319 321 317 323 326 326 327 327 327 323 321
323 322 324 330 334 334 335 335 338 338 340 340 341 341 341 340 340 340 340 338 338 339 337 338 336 337 337 336 334 333 331 332 336 337 338 337 338 337 339 340 340 341 341 339 339 339 339 339 339 339 337 337 337 337 338 337 336 335 337 339 339 337 335 332 330 330 328 328 334 334 333 333 330 331 326 322 320 318 319 325 327 327 325 323 322
325 324 325 329 332 335 335 335 338 338 339 339 340 340 341 340 340 340 339 338 339 339 338 338 337 336 337 334 334 335 334 334 338 338 337 338 339 340 341 340 342 342 340 341 341 339 339 339 339 339 339 337 337 336 337 337 339 335 334 336 336 335 336 335 331 331 331 329 330 329 329 329 330 333 333 327 323 319 318 320 321 325 325 322 323
326 328 328 330 334 335 336 337 336 337 338 340 340 340 341 340 339 338 338 338 339 339 338 339 338 338 337 336 334 332 333 336 337 337 339 339 341 340 340 338 338 338 339 340 342 340 340 340 339 338 339 338 337 336 336 336 337 337 336 337 338 336 336 335 332 331 334 334 333 328 326 326 324 327 327 327 325 324 318 317 319 318 316 318 322
325 325 325 325 334 336 336 335 336 336 338 339 339 339 340 339 338 336 337 337 338 338 339 338 338 337 336 335 333 331 334 335 334 334 335 338 336 337 336 336 337 336 338 338 338 338 339 341 340 339 339 340 338 337 337 336 337 338 335 337 335 335 334 332 330 335 335 333 331 329 327 328 325 321 324 325 322 322 318 318 319 319 316 315 318
326 325 326 329 332 333 335 335 336 335 335 337 338 339 339 338 336 336 337 337 337 337 339 339 337 337 338 333 331 332 333 332 334 335 335 336 334 335 336 337 337 337 337 336 337 336 338 340 341 340 339 340 338 338 338 336 337 336 336 336 333 334 334 332 331 332 332 330 331 331 330 330 330 326 326 327 327 323 320 318 318 318 315 315 315
326 328 329 331 331 332 333 333 335 334 335 335 336 337 338 338 336 335 335 336 336 337 337 338 338 338 337 335 333 334 338 337 337 336 335 332 332 333 335 335 336 335 334 335 336 337 336 337 339 341 340 341 341 339 339 337 337 339 338 335 337 335 336 335 334 328 331 330 331 332 332 330 330 330 330 329 331 329 323 318 318 317 312 310 312
324 325 329 329 331 331 332 332 333 333 334 333 335 336 337 336 335 335 335 335 336 337 337 338 338 338 337 335 338 336 335 336 336 332 334 333 334 333 334 335 333 333 333 333 335 334 334 336 336 338 339 341 339 340 339 338 337 335 336 335 335 336 336 338 335 331 331 333 334 333 333 331 330 331 334 332 329 326 323 320 318 317 313 308 309
324 322 326 329 331 331 332 333 332 332 333 333 334 335 335 334 334 334 334 334 336 336 336 335 336 336 336 336 338 337 335 334 332 334 335 336 335 334 334 333 332 332 331 334 334 334 334 335 335 335 336 341 338 339 339 339 338 336 335 336 336 335 335 334 336 332 329 330 333 334 334 333 331 331 331 330 330 328 325 322 319 314 310 310 308
325 326 327 329 331 333 333 333 332 331 333 333 334 334 334 333 334 334 334 335 336 336 337 336 337 338 339 336 337 336 335 335 336 335 335 335 334 333 333 334 334 333 334 333 333 333 332 333 334 334 335 336 340 339 338 338 339 337 336 337 337 336 336 337 336 336 334 330 331 337 334 332 333 331 332 334 331 329 327 325 321 316 310 307 309
323 326 327 328 330 332 331 332 331 332 332 333 333 334 334 333 333 334 334 335 334 336 337 336 337 338 338 338 337 336 335 335 336 335 335 335 335 334 333 335 335 334 333 334 333 332 332 332 331 331 334 335 336 339 339 339 338 338 337 338 338 338 337 334 334 336 338 338 338 336 333 333 333 331 332 332 332 330 328 324 321 317 315 310 307
320 325 326 326 329 330 330 331 332 332 333 333 333 334 335 334 335 335 334 334 332 335 336 337 337 337 337 335 336 334 334 336 336 334 334 334 334 334 335 333 333 333 333 333 333 332 332 330 330 331 334 334 333 333 332 335 338 337 338 338 338 338 336 335 336 336 337 335 335 334 333 333 331 331 334 334 330 331 325 324 322 320 318 313 311
317 315 317 322 324 329 330 329 331 333 333 334 333 334 334 335 334 335 334 334 334 334 336 336 337 336 333 335 335 335 335 336 335 334 334 333 333 333 332 332 332 332 331 332 331 330 331 331 331 331 332 333 333 333 332 332 332 334 336 337 336 337 335 333 336 335 336 335 333 332 333 332 333 332 333 332 332 330 326 324 322 321 319 324 314
317 318 317 322 324 330 330 330 330 332 333 333 333 332 334 334 334 334 334 334 334 333 336 334 336 335 335 332 334 332 332 331 332 332 332 332 331 332 331 331 331 330 330 331 330 329 329 329 329 329 329 331 331 332 333 331 331 332 333 333 334 334 332 332 332 333 333 333 331 331 332 332 332 331 332 331 329 328 328 323 323 322 318 321 317
319 317 316 319 321 329 331 331 327 324 324 326 328 331 330 332 332 333 332 332 333 333 334 336 335 334 331 333 332 333 332 331 332 332 332 332 332 332 331 331 329 329 330 330 329 329 327 328 327 327 327 329 329 331 332 331 331 331 334 332 331 332 330 332 331 332 332 332 330 330 331 330 333 331 329 328 326 325 324 323 323 319 317 319 317
316 317 318 317 320 322 327 328 327 324 323 323 328 330 329 330 331 331 331 331 331 332 334 334 333 331 330 331 333 333 332 331 332 332 331 331 331 331 332 330 330 329 329 327 328 329 327 327 326 325 326 327 328 328 330 331 329 330 331 333 332 329 327 326 328 326 328 331 331 331 331 330 331 329 329 324 324 325 321 320 319 318 315 316 320
315 315 316 317 321 323 325 327 327 324 324 325 327 329 330 331 332 332 331 330 329 331 332 333 331 332 332 332 330 331 330 331 331 331 331 330 331 331 330 330 329 328 329 328 328 325 325 325 326 326 326 327 328 328 330 329 329 328 327 328 328 327 326 326 326 326 326 332 331 330 329 331 330 329 327 325 324 322 320 318 318 316 316 317 317
315 316 317 318 321 322 323 325 325 325 325 326 327 328 330 331 331 330 330 330 328 330 331 332 332 330 334 331 330 328 331 330 330 331 332 332 330 330 329 329 328 327 327 329 326 324 323 326 326 326 327 327 327 329 329 327 326 326 325 325 326 327 326 326 326 324 323 325 327 329 329 331 331 328 327 325 323 322 320 318 317 319 318 314 319
313 314 314 316 316 316 316 320 324 326 325 325 325 327 330 331 332 329 326 326 328 329 329 331 329 331 328 331 330 331 331 330 330 330 331 331 331 329 329 328 328 328 327 326 323 324 324 325 327 325 325 326 326 327 326 325 326 326 325 325 325 324 326 324 325 323 326 323 324 324 327 331 331 330 327 324 323 323 320 319 317 317 318 317 320
311 312 313 313 314 314 314 315 319 325 325 325 325 327 329 330 328 328 326 325 324 325 328 327 328 327 332 331 330 330 330 329 328 330 331 331 330 329 329 331 327 327 326 324 323 323 322 323 323 324 323 323 324 325 325 325 325 325 325 325 325 325 324 324 324 323 322 324 324 323 324 325 331 327 327 325 326 323 320 320 318 318 317 319 321
308 309 310 312 312 311 311 314 316 319 324 326 325 325 327 327 327 327 327 327 326 328 327 327 330 330 331 330 329 328 328 329 330 330 330 330 329 329 330 328 327 326 324 323 322 322 323 323 322 323 323 323 322 322 324 325 325 325 325 324 324 324 324 324 323 322 323 324 325 324 325 325 325 329 329 328 326 324 323 322 321 322 318 319 318
307 307 307 308 309 310 310 311 311 313 316 320 325 325 324 322 322 325 326 326 325 328 329 330 332 331 331 329 328 328 328 329 330 330 329 329 329 328 328 327 326 324 323 321 320 320 322 323 324 323 323 323 323 322 322 322 323 324 325 325 324 325 324 324 324 323 324 324 325 324 324 324 324 325 327 327 331 326 325 323 324 322 322 321 320
303 304 305 305 306 307 307 307 307 309 310 312 319 321 322 324 324 323 324 326 329 329 328 329 330 329 329 329 330 328 329 329 328 328 328 328 328 327 325 325 323 322 322 320 321 320 321 322 322 323 322 324 324 318 312 310 315 320 322 324 325 324 324 323 323 323 324 324 324 324 323 324 322 315 307 310 312 316 332 325 325 324 323 322 321
300 301 302 302 303 303 304 305 305 305 305 307 308 311 318 323 323 321 323 325 330 328 329 328 327 328 329 329 329 329 328 328 327 327 327 326 325 324 323 322 322 322 322 321 320 320 320 321 320 321 326 323 320 313 301 296 298 310 319 321 324 324 324 324 323 322 323 323 323 324 323 315 313 311 307 303 300 302 306 318 324 325 323 321 321
299 299 300 301 302 302 302 302 302 302 303 304 304 306 308 317 320 322 323 325 327 329 327 326 324 325 327 327 327 327 327 326 327 327 327 326 326 328 327 322 323 323 323 322 322 319 319 320 320 323 321 318 313 304 294 293 294 294 312 324 323 322 323 322 322 322 321 321 321 322 323 322 320 316 321 299 302 302 300 298 299 303 308 320 322
298 299 299 299 300 300 300 301 301 302 303 303 303 304 305 307 314 314 317 323 323 324 324 323 323 323 324 324 324 324 324 324 324 323 324 324 324 325 325 325 325 324 323 324 323 322 323 324 323 321 318 315 309 295 291 293 293 293 297 316 325 323 323 322 322 321 320 321 320 322 323 322 323 327 323 320 313 300 304 303 301 299 297 295 299
298 298 298 299 298 299 300 301 302 302 302 303 304 303 302 304 308 311 314 316 316 317 317 317 319 320 320 320 320 320 319 318 317 318 319 320 320 320 321 322 323 324 325 324 326 324 323 321 319 315 313 311 309 293 292 292 293 292 292 303 323 322 320 321 323 322 323 322 321 322 323 323 320 318 320 321 322 324 301 294 298 300 300 298 299
299 299 299 299 299 299 300 301 302 302 302 304 304 303 302 303 305 308 309 310 310 310 310 311 312 312 313 313 315 316 316 316 316 316 316 316 316 317 319 320 321 322 322 322 321 320 319 317 315 313 310 308 304 294 291 291 292 291 292 297 325 323 323 322 322 322 323 323 323 323 323 322 324 324 324 325 321 323 325 325 325 323 321 318 300
298 298 299 299 299 299 299 300 301 302 303 303 302 302 302 302 303 304 305 306 307 307 307 308 309 310 311 311 312 312 313 314 314 313 312 312 313 315 315 316 318 318 318 317 317 316 315 314 313 311 309 305 301 291 291 291 292 291 291 297 325 323 322 323 324 324 324 324 325 325 324 323 326 322 309 307 323 325 326 325 324 325 325 324 324
298 298 298 298 299 299 299 299 301 301 302 303 302 303 302 301 301 302 302 302 303 303 304 306 307 308 308 309 310 309 310 310 311 311 310 310 310 311 311 312 313 314 316 316 316 316 315 313 312 311 308 304 301 291 291 291 291 291 292 319 323 323 323 325 326 327 325 327 327 328 327 327 327 318 299 293 298 313 323 323 322 322 322 323 324
299 299 299 300 300 300 300 300 300 300 300 300 302 302 301 301 300 300 300 300 300 301 301 302 304 305 307 308 308 309 309 308 309 309 309 310 308 308 308 308 309 310 310 311 313 313 314 315 313 312 309 305 302 294 290 291 291 290 299 319 322 321 323 323 324 325 324 326 327 322 322 324 323 311 294 292 293 299 323 323 323 323 324 323 323
300 300 301 301 301 300 300 300 300 300 300 301 301 301 300 299 299 299 299 300 300 299 300 300 301 302 304 305 306 307 306 307 308 308 308 308 308 308 307 308 306 306 306 307 308 307 308 309 310 310 310 306 302 295 290 291 291 290 296 314 317 319 320 320 321 322 323 323 315 311 319 322 316 306 291 291 291 304 317 320 322 322 322 322 325
299 299 299 299 299 299 300 300 299 298 300 301 301 300 299 298 298 298 298 298 298 299 299 300 300 302 303 303 304 305 306 305 304 304 304 304 305 306 307 308 307 307 307 306 306 306 305 306 306 306 306 309 306 299 291 291 291 291 298 309 313 314 315 316 316 316 318 319 317 306 300 304 304 296 289 290 290 299 309 313 315 317 318 320 322
297 298 299 298 299 298 297 297 298 299 301 301 300 300 299 299 298 299 297 297 298 299 300 301 301 302 303 303 303 303 304 304 304 304 305 305 305 305 305 305 307 308 308 308 307 306 306 306 307 307 305 306 306 302 295 290 291 292 291 304 313 311 310 309 311 310 310 312 314 309 298 290 291 290 289 289 290 290 302 306 308 308 310 313 313
297 297 298 298 298 297 297 297 298 299 299 299 299 299 298 298 298 298 298 299 300 301 301 301 301 301 301 302 304 304 303 304 304 305 305 305 305 305 306 307 307 307 307 307 307 306 307 307 307 306 305 303 303 305 298 290 291 291 291 295 309 307 304 304 305 306 307 308 309 311 305 292 290 290 290 290 290 290 290 301 305 306 308 305 300
297 297 298 298 298 298 298 299 299 298 299 299 298 298 298 297 296 296 298 300 302 301 301 301 301 301 302 302 302 303 304 305 305 304 303 304 304 305 306 306 307 307 307 306 305 305 305 304 304 304 305 303 300 301 302 292 291 291 290 291 301 300 297 300 303 305 306 308 309 309 308 295 290 291 291 291 290 291 290 297 301 295 293 293 300
295 296 297 297 296 296 297 298 298 299 299 299 298 297 297 297 295 296 298 299 299 300 300 300 299 300 301 302 303 304 303 303 303 303 303 303 303 304 305 305 306 305 306 306 306 306 306 305 304 304 303 304 303 300 296 298 290 290 289 291 289 295 290 302 301 300 301 302 305 307 306 293 291 291 291 291 291 290 292 299 293 292 292 290 293
296 296 296 297 296 297 297 298 299 299 299 299 298 297 297 297 297 299 300 300 300 300 300 300 300 300 300 300 300 301 302 302 302 302 302 302 302 302 303 304 305 304 304 304 304 306 306 306 306 306 307 307 307 305 296 296 296 290 291 290 290 289 289 298 300 300 300 303 303 304 299 291 291 291 291 291 291 290 294 291 290 291 291 291 299
295 295 296 297 296 296 297 297 299 299 299 299 299 298 298 298 300 301 300 301 301 301 301 301 300 300 300 300 300 300 300 300 301 301 301 301 302 303 302 302 303 303 303 303 302 303 303 303 303 305 305 305 306 305 304 297 294 291 290 289 289 288 289 288 299 301 303 303 295 291 292 292 292 291 291 290 292 292 290 289 289 289 291 297 301
297 297 298 298 297 297 297 297 298 298 299 299 299 299 298 299 301 302 302 302 302 302 301 300 300 300 301 302 302 301 301 302 302 301 301 301 301 301 302 302 303 302 302 302 300 301 301 301 301 302 302 303 302 305 305 304 298 296 294 289 289 289 290 290 293 298 292 289 289 290 290 291 291 294 298 301 302 304 295 292 291 291 301 303 303
296 297 298 298 298 297 296 297 297 298 299 299 299 300 299 300 300 301 302 303 302 302 301 301 301 301 300 299 300 300 301 301 302 302 302 302 301 301 301 300 301 302 301 300 301 301 301 301 302 302 303 303 304 305 305 303 301 300 300 300 302 300 292 290 295 299 297 300 301 300 299 295 295 293 294 293 295 296 300 303 302 302 303 305 307
297 297 297 297 297 297 297 297 297 298 299 299 300 300 300 300 301 301 302 302 301 302 302 302 302 301 301 301 301 295 298 300 300 300 300 301 302 303 301 298 297 298 299 301 302 301 301 302 302 302 303 303 303 302 299 298 298 298 298 299 300 301 302 302 301 300 299 299 300 296 297 302 303 303 303 304 305 306 305 303 305 305 305 305 304
295 296 296 295 296 297 297 297 296 298 299 299 299 299 300 300 301 301 301 301 300 300 301 301 301 301 301 301 301 301 302 302 302 300 299 298 298 301 302 300 298 297 296 297 300 301 300 301 302 302 301 302 302 299 296 290 292 288 291 295 297 298 298 299 295 288 294 298 300 300 300 300 303 297 299 303 303 303 301 303 305 305 304 303 304
297 297 297 296 296 296 296 295 296 297 297 297 299 300 300 300 300 301 301 300 299 299 300 299 299 298 300 301 301 301 301 301 301 302 301 297 289 289 296 299 299 290 288 288 290 295 296 298 300 302 300 298 298 296 288 288 288 288 288 287 288 288 288 291 290 287 289 294 296 296 298 299 298 298 299 298 299 299 297 299 299 297 300 302 302
297 297 297 297 297 297 297 296 296 297 297 297 298 299 300 301 301 301 301 300 300 299 299 299 299 298 296 299 300 300 301 301 301 301 302 298 299 297 288 288 291 290 290 288 288 287 287 287 293 298 297 289 289 288 288 288 288 288 288 288 288 288 288 287 287 289 293 295 297 297 298 299 298 300 297 298 297 298 298 298 299 299 301 300 298
Wind_Speed
8 7 9 10 12 9 7 7 6 6 7 7 8 11 13 10 7 8 8 8 8 9 9 7 8 8 7 7 7 6 5 4 4 3 4 5 7 5 4 5 5 6 9 6 6 3 3 1 1 4 5 9 5 5 5 5 5 5 3 7 10 7 6 6 7 6 6 6 6 6 6 4 4 4 4 5 6 3 1 4 5 6 5 5 5
9 9 10 12 10 10 8 6 7 7 8 8 8 10 12 12 10 8 8 9 8 8 9 8 6 6 7 6 5 5 5 5 4 3 3 5 6 6 4 2 3 5 5 6 5 4 3 2 2 2 9 5 4 4 3 5 5 5 6 6 6 7 5 5 5 8 3 7 8 6 5 4 4 1 2 3 4 4 5 4 4 4 5 5 6
8 8 11 12 12 11 7 6 6 8 9 10 10 11 13 12 11 10 9 9 8 7 8 8 6 5 4 4 4 3 2 4 4 4 3 3 5 4 4 6 6 5 6 6 5 5 3 3 5 6 9 6 2 4 6 5 5 5 6 5 6 3 5 3 5 3 4 7 8 8 7 6 4 2 1 2 3 6 4 5 4 6 6 4 5
15 15 13 12 11 11 11 10 10 9 8 9 11 11 10 10 11 10 9 9 8 7 7 8 8 6 4 3 5 5 4 5 6 4 4 5 3 4 4 4 7 7 6 6 6 5 4 5 6 8 9 5 5 5 5 6 3 5 4 4 8 0 4 6 4 3 2 9 7 4 7 6 7 5 4 5 10 8 5 6 4 6 7 5 4
15 16 12 10 10 11 11 12 11 10 10 10 10 10 8 11 12 11 8 8 8 8 8 9 9 8 6 4 3 3 2 5 6 5 4 6 7 8 7 6 6 3 2 3 3 3 8 10 10 8 7 4 4 5 4 5 5 5 5 3 7 5 5 4 6 8 9 2 2 6 5 5 4 7 7 5 3 4 4 5 4 5 6 5 4
14 13 12 12 11 12 12 12 11 11 12 10 11 10 10 10 10 10 6 8 9 10 9 8 7 6 7 8 7 6 5 8 10 9 8 9 10 9 11 6 6 8 11 11 8 6 8 7 7 6 5 3 3 2 3 4 5 3 4 4 5 7 5 5 6 2 6 2 1 4 2 1 7 8 7 5 3 4 5 6 5 5 4 4 5
15 12 11 10 11 12 13 13 12 11 11 11 10 10 10 10 11 10 8 7 9 9 11 8 8 7 8 7 7 5 5 5 5 6 10 10 9 8 9 10 10 8 7 7 11 10 6 7 5 6 6 5 4 4 3 5 5 5 3 5 5 6 6 8 7 6 6 3 1 4 5 2 4 8 6 7 7 3 4 5 4 5 4 5 5
14 13 11 11 14 14 13 13 12 11 11 11 10 10 10 11 11 9 7 7 8 9 11 9 10 9 8 7 6 5 4 3 6 8 7 5 8 8 7 7 8 9 8 7 7 8 9 7 7 5 5 6 5 5 3 3 3 1 3 1 5 5 4 6 6 7 7 5 2 1 2 3 4 2 4 7 7 8 5 4 5 5 5 5 5
16 14 16 16 15 13 11 10 9 9 10 11 11 10 10 10 11 10 9 9 9 12 11 11 9 9 9 8 6 2 2 6 7 6 6 7 7 6 6 6 7 6 7 7 7 7 6 6 6 6 5 5 5 6 5 5 4 7 6 3 5 5 6 4 5 5 4 5 4 1 3 3 2 1 2 1 4 8 7 7 7 5 4 4 3
13 15 12 11 11 11 10 11 10 9 9 11 11 11 12 11 10 11 11 9 10 11 11 12 11 8 8 7 7 7 7 7 7 7 6 6 6 7 6 6 6 6 6 6 6 6 6 6 7 6 6 6 5 6 5 4 3 4 4 6 4 6 5 4 4 5 6 6 4 2 2 4 1 2 1 3 3 4 6 9 7 8 7 5 4
12 7 10 10 10 11 11 12 11 10 9 11 11 12 12 12 12 12 11 10 10 10 11 12 11 11 8 7 6 6 8 9 7 7 7 6 6 6 5 5 5 5 5 5 6 5 5 6 6 6 6 5 5 5 4 5 4 4 2 3 5 4 4 7 9 5 5 5 5 4 3 3 4 2 3 3 2 2 6 7 8 8 7 7 6
9 14 13 15 13 12 13 13 13 12 13 13 12 12 13 13 12 12 13 12 11 11 11 12 11 10 9 10 8 8 11 8 8 8 8 7 6 6 4 4 4 4 4 4 4 5 5 4 5 5 5 5 5 4 3 4 4 6 7 6 6 4 4 5 1 4 4 5 5 3 4 4 5 4 4 1 3 4 4 7 8 8 8 7 6
8 7 8 11 12 14 14 13 12 10 12 15 14 13 13 13 14 14 14 13 12 13 13 11 10 9 8 9 9 10 9 8 7 7 7 6 6 6 5 5 5 4 4 3 4 4 4 4 4 4 4 4 4 4 4 5 3 4 3 4 5 8 4 7 6 12 6 5 5 5 4 4 6 7 8 7 4 2 4 7 7 7 7 7 7
8 4 9 9 10 12 13 13 12 10 11 13 13 13 12 12 13 14 14 13 13 14 14 13 12 11 9 10 10 10 9 7 7 7 6 6 5 6 5 4 4 4 4 3 4 3 3 3 3 4 3 3 4 3 3 4 4 4 4 4 5 4 6 4 6 11 5 5 4 6 5 4 3 3 6 5 5 4 5 7 6 6 8 7 7
11 11 11 10 12 13 12 12 12 12 12 12 11 12 12 13 13 14 14 14 14 15 14 16 13 13 12 10 9 9 8 7 7 7 6 6 6 5 5 4 4 3 4 3 3 2 2 2 2 2 3 2 4 4 4 4 3 3 3 3 3 5 5 5 3 10 7 5 5 6 6 4 4 3 3 4 5 4 5 7 6 8 7 7 8
7 11 11 13 13 13 11 11 13 13 13 11 12 12 12 13 13 13 13 14 15 15 14 13 12 11 12 12 10 9 7 8 7 7 7 6 6 6 5 4 5 4 4 4 2 1 2 2 2 3 2 3 3 4 4 4 4 4 3 4 5 3 4 4 3 4 7 10 9 5 5 5 4 4 3 2 3 4 6 6 6 6 7 7 7
3 5 10 13 12 12 11 12 12 13 13 12 11 10 13 14 15 15 14 14 15 14 13 13 11 11 11 10 10 8 8 8 7 8 8 7 7 6 5 6 6 5 4 4 3 2 1 1 3 2 1 2 3 3 3 3 4 4 3 4 4 4 3 5 3 3 3 5 4 5 3 4 5 5 4 5 5 5 6 7 7 6 5 6 6
9 5 4 6 9 10 11 10 13 14 14 12 9 8 10 13 15 16 14 14 14 12 12 11 11 11 10 11 9 9 8 8 8 9 8 7 7 6 6 6 5 5 5 4 3 4 2 1 1 1 1 1 1 2 3 3 3 3 2 3 4 3 2 2 3 3 3 4 5 4 4 4 6 4 4 4 6 9 8 7 8 6 6 6 5
4 1 8 9 10 10 10 9 10 13 11 12 12 11 11 12 14 14 15 14 13 11 11 10 10 8 9 9 9 9 9 8 8 9 8 8 7 6 6 6 6 5 5 5 4 4 3 3 2 2 2 2 2 2 1 2 3 1 2 2 3 4 4 4 3 4 4 4 5 6 5 4 4 5 4 4 6 5 6 6 6 6 5 4 6
3 1 8 9 11 9 10 10 9 8 6 6 8 10 13 13 13 13 13 12 12 10 9 11 10 10 10 10 10 10 10 9 9 9 8 8 7 7 7 6 5 5 5 4 3 4 3 3 3 3 3 3 3 2 2 2 3 3 3 3 3 4 2 2 5 5 4 4 3 4 6 5 4 4 3 6 6 6 5 5 6 3 2 2 4
5 2 5 8 14 4 5 9 11 8 6 3 3 5 9 10 12 13 13 13 12 12 11 9 10 11 12 12 12 10 11 11 11 9 9 8 7 7 7 6 5 5 5 4 5 4 4 3 3 3 3 4 3 2 2 1 2 2 4 4 3 4 7 9 6 6 5 5 6 7 8 7 8 7 7 7 7 7 6 7 4 4 5 5 6
11 10 5 7 9 5 1 9 6 7 5 6 8 8 12 13 12 12 12 10 9 9 9 11 10 11 14 13 12 11 10 9 10 10 8 9 7 7 6 6 5 6 5 5 5 2 2 3 3 3 1 1 2 2 2 2 2 2 2 3 5 6 3 2 4 6 7 8 10 11 9 8 7 5 8 8 8 7 8 8 6 6 7 7 6
10 10 8 9 6 2 6 6 8 8 6 6 7 7 10 13 14 12 10 8 5 8 9 11 12 13 14 13 13 11 11 10 11 9 10 9 8 7 6 6 5 5 4 4 4 4 3 4 3 2 2 2 2 2 1 2 2 1 2 2 2 3 3 2 3 3 4 3 5 4 6 9 7 7 7 7 8 8 8 8 7 6 7 6 7
12 10 10 7 5 6 7 4 8 7 8 8 7 9 9 12 14 14 12 8 7 6 10 10 11 13 11 13 13 13 12 12 10 9 10 9 9 7 7 6 5 5 5 3 4 3 4 3 4 4 4 3 3 3 4 4 4 4 4 5 4 3 3 4 4 6 6 4 2 1 6 7 7 7 7 7 8 9 10 7 8 6 7 7 5
12 12 12 10 10 9 9 10 3 7 7 9 7 9 10 8 4 7 11 12 7 7 14 13 12 12 14 12 13 12 12 12 11 10 10 10 9 8 7 6 5 5 5 4 4 3 3 5 3 4 4 4 4 3 3 2 3 3 3 4 4 4 5 5 6 6 6 6 7 8 6 6 8 9 10 8 8 8 9 6 7 7 6 7 3
13 13 12 12 10 10 11 10 10 6 8 8 9 9 10 7 3 5 6 10 11 7 11 11 11 12 10 13 12 13 13 12 12 11 11 10 9 8 7 6 6 6 5 4 4 3 3 5 6 5 6 5 4 4 4 3 2 1 1 3 3 5 4 5 3 3 3 3 4 4 6 7 7 4 8 7 7 9 8 6 8 7 8 7 5
13 12 11 11 11 12 11 10 11 11 10 7 8 10 10 6 5 4 5 7 10 9 11 10 10 11 13 14 12 13 12 12 11 11 10 10 9 8 8 7 6 6 5 4 4 4 3 3 4 3 3 3 3 3 5 4 4 3 2 1 2 3 3 3 4 3 5 4 4 4 3 4 5 7 5 7 6 6 5 3 5 6 6 8 7
11 12 13 13 12 12 13 13 13 12 12 12 6 1 1 2 5 6 5 6 6 9 10 11 13 12 10 11 11 12 12 11 11 11 11 10 9 8 7 7 7 6 5 4 4 4 3 3 4 3 3 2 2 6 9 7 3 4 3 4 2 2 4 3 3 3 3 3 4 4 4 5 2 1 2 7 7 6 5 5 4 4 4 3 5
13 13 13 14 13 12 13 13 13 13 13 12 8 2 8 8 8 2 4 8 9 10 14 14 12 12 12 11 10 10 11 11 11 11 11 10 9 8 8 8 7 6 4 5 4 4 4 4 5 3 4 5 10 8 6 7 8 9 2 5 4 5 3 4 4 3 3 4 4 4 2 6 9 6 10 10 8 7 1 5 5 4 4 4 5
13 13 13 13 13 14 14 14 14 14 14 13 11 10 9 6 8 12 10 9 5 9 11 12 12 11 12 12 12 11 11 12 12 11 11 10 9 8 8 8 7 7 6 5 5 5 4 5 6 5 9 8 7 5 10 11 7 5 9 4 5 4 5 4 4 6 4 4 5 5 7 8 9 8 8 9 9 8 9 6 4 3 3 5 6
12 12 13 12 13 14 14 14 14 14 14 12 11 10 12 8 4 4 5 6 7 7 10 12 12 11 12 12 12 12 12 13 13 12 11 10 9 7 6 6 7 7 7 5 4 4 5 5 5 7 8 8 6 6 12 11 11 11 7 9 2 3 4 5 5 4 4 5 3 4 7 6 5 4 4 5 5 7 8 7 6 5 4 4 5
12 12 12 13 14 14 14 14 14 14 14 12 12 12 11 13 5 6 4 5 4 5 7 10 11 11 11 12 11 12 12 12 12 12 11 10 8 8 8 7 5 6 6 5 4 3 6 8 8 9 8 7 6 8 11 11 11 11 8 6 5 0 2 3 5 4 5 5 5 4 4 5 4 3 3 7 6 5 2 4 4 6 7 5 2
13 13 13 13 13 13 14 14 13 13 13 15 13 13 13 12 11 3 6 7 6 9 9 9 8 9 11 11 12 12 12 11 10 10 10 10 9 8 7 7 7 5 7 7 6 6 7 7 8 9 8 8 6 11 11 11 10 10 10 8 6 3 4 4 1 3 4 1 3 4 3 2 5 5 2 3 1 5 4 3 2 3 4 6 8
12 13 13 13 12 11 12 13 13 13 14 14 15 13 11 12 11 7 10 8 7 10 9 10 10 10 9 8 9 12 12 12 11 11 10 10 9 8 7 7 6 6 8 8 8 8 8 7 7 8 8 7 8 10 11 12 11 11 10 7 5 2 2 1 1 1 1 0 1 1 2 4 4 1 4 5 3 4 4 4 3 4 5 6 7
13 14 13 13 13 12 13 13 13 14 14 15 15 12 11 13 12 10 10 10 10 11 11 9 11 10 9 8 8 10 12 11 11 11 10 10 8 8 8 7 6 6 7 7 7 8 7 7 7 7 8 8 6 10 12 13 13 13 12 9 2 1 2 2 0 1 2 1 2 2 3 4 5 9 7 9 8 7 6 5 5 6 7 7 7
12 13 13 14 14 14 14 13 12 13 14 16 15 12 11 12 13 12 13 12 10 13 11 10 10 9 10 8 8 11 12 11 10 9 9 9 8 8 8 6 6 6 5 6 7 7 8 8 7 7 7 8 7 13 13 13 14 14 14 7 1 2 2 0 1 1 2 1 0 1 2 2 7 8 9 12 10 7 5 6 7 8 8 7 7
13 13 13 13 13 14 14 15 15 15 15 14 12 11 11 11 12 13 13 14 14 12 11 10 10 9 9 7 7 10 9 10 9 10 10 8 8 8 7 5 6 6 7 7 7 7 7 7 7 7 7 7 8 11 13 14 14 15 11 5 1 2 1 1 1 1 2 1 3 5 5 3 7 7 9 12 12 9 5 6 7 8 8 8 8
12 12 13 13 12 12 13 13 15 15 14 12 11 10 11 12 12 12 14 12 12 12 10 10 11 10 9 10 9 8 8 10 9 9 9 8 7 7 7 5 6 6 7 6 7 7 7 7 8 8 6 7 7 10 13 13 14 15 12 6 4 2 0 2 1 1 3 2 8 10 7 6 8 7 9 11 13 9 5 7 8 9 9 10 8
12 11 12 12 12 12 13 14 15 15 13 12 10 10 10 12 12 12 12 13 11 10 10 11 11 10 9 9 9 9 9 10 10 8 8 8 7 6 6 5 6 6 7 6 6 6 7 7 7 7 8 6 7 8 12 12 13 14 11 7 5 3 2 3 4 4 1 1 8 10 14 12 9 7 10 11 11 9 7 7 8 9 9 9 8
11 12 12 12 11 12 14 14 14 13 11 12 11 10 11 10 10 10 12 11 10 9 9 9 8 7 7 9 10 10 10 9 9 7 7 7 6 6 7 6 6 5 5 5 4 5 6 6 5 6 6 6 6 7 8 10 12 13 14 8 5 5 5 5 4 5 5 5 2 9 9 11 10 8 8 8 8 7 5 6 7 7 9 8 9
11 11 11 11 12 12 12 11 10 11 11 11 10 12 12 11 10 11 12 9 7 6 7 7 7 8 9 10 9 8 8 8 8 7 6 5 5 5 4 5 5 4 4 4 4 4 4 4 4 4 4 4 4 5 7 9 9 11 13 11 5 7 7 6 6 5 5 4 4 7 6 7 7 7 7 6 5 5 2 4 6 7 7 10 13
11 12 11 11 11 12 12 12 11 11 11 10 10 11 10 10 10 11 9 7 6 6 6 7 7 8 8 8 7 7 7 5 4 6 6 5 4 4 4 4 4 4 4 4 4 4 4 3 3 3 4 4 4 5 5 6 7 8 9 12 8 7 6 6 6 6 5 5 5 5 6 6 9 9 10 10 10 7 3 4 7 10 12 12 8
12 12 13 11 11 12 13 13 11 11 11 10 11 11 11 10 11 10 8 7 8 8 7 7 8 8 7 6 6 7 7 6 6 6 7 6 5 5 5 4 3 3 3 4 4 3 4 5 4 4 3 4 5 4 5 5 4 5 6 7 6 5 7 4 4 5 6 6 5 7 4 13 15 15 14 13 10 12 9 7 10 11 11 10 7
11 11 11 11 11 10 10 11 10 10 10 10 10 10 9 9 8 5 5 6 7 7 7 8 8 7 7 7 8 7 6 5 5 5 5 6 4 3 4 4 3 2 2 2 2 2 2 3 4 5 6 5 4 6 5 6 5 6 4 3 2 2 4 4 4 3 4 5 5 6 8 12 12 13 13 12 12 11 9 13 14 15 14 11 7
9 9 9 9 10 10 10 11 11 11 10 9 9 9 9 9 7 5 5 6 5 5 6 7 7 6 7 7 6 6 6 6 6 6 5 4 4 3 4 3 3 3 3 2 3 3 3 3 2 2 3 3 3 4 5 5 5 6 5 5 4 3 5 4 3 4 4 5 6 7 8 8 10 12 13 13 12 12 15 14 14 16 13 5 6
8 7 8 10 9 10 10 10 10 9 8 8 9 9 10 9 7 7 7 7 6 7 7 7 7 7 6 6 6 6 6 5 5 5 5 5 5 6 5 4 4 3 3 3 3 2 2 2 1 1 1 2 1 1 4 5 3 4 3 5 6 5 6 8 8 6 10 11 10 8 9 12 12 12 10 8 8 9 10 13 14 13 7 8 8
10 9 7 8 7 8 8 9 10 9 9 8 8 7 7 6 7 7 7 7 7 6 7 6 6 6 7 7 7 5 4 5 5 4 4 4 4 4 4 4 4 3 3 2 2 1 2 2 2 2 2 3 3 3 4 6 6 6 5 3 3 5 9 8 6 5 5 5 6 5 8 10 12 14 15 14 14 13 10 7 8 8 8 9 9
9 10 10 9 9 8 9 8 7 7 7 8 9 8 8 7 7 8 7 7 7 8 7 7 8 7 6 6 6 1 2 5 5 6 6 6 6 5 6 7 7 7 7 5 3 3 4 4 3 3 2 1 3 9 8 8 7 7 6 6 6 6 5 5 6 7 8 9 9 10 11 11 10 9 8 7 8 7 8 7 6 5 5 7 10
8 8 8 8 8 9 9 8 8 9 8 8 5 6 7 7 7 6 7 6 6 6 7 8 7 6 6 6 6 6 5 4 5 6 7 7 7 7 7 7 8 7 6 6 6 7 7 6 5 5 4 4 5 8 7 6 6 5 4 5 6 5 6 5 5 7 7 8 8 7 6 6 6 4 3 5 5 6 4 7 7 7 7 8 8
5 4 5 6 6 6 7 8 7 7 7 7 8 6 6 6 5 6 6 6 6 5 5 7 8 8 7 6 5 5 5 5 4 3 6 7 7 8 7 5 5 7 9 8 7 5 5 6 5 6 7 6 6 6 8 9 8 6 3 4 6 7 8 7 9 11 7 5 5 4 4 4 4 4 4 5 5 5 6 6 5 7 7 9 9
5 5 6 6 7 6 6 6 6 6 7 7 6 6 6 5 7 6 6 5 5 4 4 4 6 6 6 6 5 6 5 5 4 3 2 4 6 6 9 9 8 8 7 6 5 5 7 8 6 6 6 12 11 9 10 8 8 7 7 5 5 5 6 8 8 5 4 3 3 3 3 4 4 6 5 5 6 6 6 6 7 7 9 9 8
Wind_Direction
173 208 196 199 198 199 197 181 175 184 184 181 165 154 149 157 175 185 191 178 170 160 166 186 185 182 183 186 182 175 191 164 139 142 163 155 161 183 165 161 209 170 170 188 169 136 94 305 113 308 266 223 192 206 162 223 190 180 119 160 156 153 180 191 181 110 100 106 95 117 113 94 111 104 124 182 190 209 253 181 146 125 156 144 115
161 196 205 195 195 184 179 174 169 181 189 183 181 158 152 151 169 179 189 181 177 175 165 182 186 185 188 194 186 173 182 167 150 168 174 169 164 181 176 158 195 177 180 166 156 146 152 185 55 244 251 257 185 198 186 195 188 162 191 168 160 149 151 169 119 108 142 142 137 126 110 87 61 82 196 190 147 160 187 153 148 115 131 116 132
192 208 201 205 192 185 173 152 177 198 193 190 175 165 157 166 170 180 191 186 167 174 171 167 170 176 190 169 175 157 164 126 115 163 152 174 180 171 206 168 190 214 181 166 162 153 152 117 187 214 243 241 217 179 192 205 192 197 180 175 128 179 145 141 145 178 138 141 136 127 141 141 143 138 39 325 326 246 162 152 149 139 121 145 136
191 197 199 192 189 178 181 175 186 191 182 180 174 168 168 171 169 182 188 178 165 174 180 148 150 144 144 146 162 165 153 132 127 182 166 150 173 198 217 221 188 196 177 166 168 150 157 200 218 218 241 206 213 191 196 197 194 199 178 204 108 316 162 157 156 117 137 145 156 160 148 156 146 141 157 181 207 201 167 137 171 122 123 112 118
188 195 181 189 204 190 186 183 177 187 182 178 174 175 175 169 171 182 184 165 145 157 182 158 146 156 151 144 149 133 115 125 140 170 194 160 199 171 226 194 213 158 103 247 96 179 205 201 210 208 210 203 209 222 199 208 190 200 185 210 142 163 187 125 196 134 198 265 147 138 152 174 160 145 140 127 174 155 117 94 86 120 110 134 127
190 187 182 183 197 204 200 183 184 190 180 170 171 173 172 165 171 175 173 164 144 156 170 168 168 165 165 159 165 168 166 164 171 176 165 195 197 179 168 189 204 175 187 183 174 211 210 209 206 207 198 208 249 244 228 221 207 192 163 184 98 103 160 154 165 154 195 230 355 31 331 314 156 148 151 141 165 100 125 126 131 94 127 129 106
182 184 179 190 198 205 194 194 196 190 176 170 166 166 167 166 172 174 172 159 153 160 165 173 170 176 180 177 172 166 163 173 172 182 167 185 151 192 168 194 179 181 195 182 167 180 185 210 199 215 193 200 211 243 201 225 197 193 135 142 146 144 148 170 163 169 179 188 30 4 352 9 134 159 158 141 136 133 83 124 121 134 164 136 129
169 186 189 198 203 198 197 193 198 182 170 167 159 161 168 166 171 172 165 166 164 158 172 176 175 176 182 184 173 165 179 178 196 176 188 158 158 171 162 169 176 175 185 188 182 178 183 187 189 195 201 193 197 221 217 225 204 141 100 61 118 133 151 182 163 165 177 150 89 31 335 333 167 51 153 156 147 140 149 140 106 86 64 53 72
171 171 180 199 208 194 195 189 175 165 168 167 163 162 158 166 167 172 172 175 172 165 177 176 178 173 176 176 167 159 185 212 209 178 170 160 167 164 167 170 173 179 179 184 186 178 182 186 187 188 199 195 201 211 208 219 198 131 128 157 137 142 185 168 189 153 174 149 136 151 26 331 76 32 337 19 156 149 149 157 149 120 106 93 81
155 168 164 177 188 195 181 170 162 176 169 166 164 157 153 159 162 181 180 180 170 171 179 172 170 172 173 164 173 176 206 206 191 173 165 166 167 165 168 170 167 167 174 176 181 172 176 184 195 190 190 204 199 221 208 207 165 98 144 169 149 151 178 183 87 195 173 126 113 116 114 98 311 301 282 38 352 199 164 161 152 152 149 130 129
128 161 182 177 183 184 158 165 164 170 175 167 169 161 158 163 166 179 183 171 169 174 180 174 174 174 165 163 179 205 213 184 181 171 162 160 159 165 166 164 164 153 161 166 173 163 183 180 191 189 192 194 203 216 203 207 172 130 130 158 157 172 201 146 183 127 108 122 137 147 139 148 152 185 126 134 171 285 180 156 158 167 136 140 163
145 183 187 155 169 168 160 166 169 169 182 170 169 163 163 162 164 177 179 170 169 173 187 179 178 171 161 169 172 210 208 184 172 166 159 159 156 155 152 152 152 142 153 151 162 163 165 177 191 191 191 196 204 215 196 220 180 176 167 189 171 172 221 108 185 122 142 156 142 139 160 155 143 139 135 147 159 219 192 164 169 149 149 149 140
184 162 152 163 168 165 164 169 169 184 179 167 166 163 165 164 166 173 176 169 179 177 185 184 177 174 162 180 171 211 193 167 162 150 152 152 163 159 151 153 141 148 148 146 142 164 163 172 172 194 191 199 205 210 189 225 187 168 177 166 200 156 218 168 179 142 164 139 175 166 181 172 172 167 166 171 173 223 229 167 166 155 143 139 148
102 265 158 168 174 168 165 172 174 173 187 174 166 164 161 166 173 181 176 177 179 184 177 180 180 169 172 191 186 197 177 160 154 150 161 154 150 142 155 148 140 138 142 145 135 163 152 154 172 179 202 195 200 206 206 212 187 212 188 199 191 123 209 178 160 118 181 147 174 178 168 185 209 161 137 158 158 185 207 176 168 139 144 151 152
149 187 185 179 168 175 171 176 176 173 186 175 168 169 162 164 173 180 177 177 184 182 175 175 175 170 179 182 198 173 176 159 158 151 156 145 138 142 129 127 124 125 120 104 128 142 124 136 151 194 185 186 189 185 197 191 178 226 187 186 229 165 200 179 209 140 169 186 198 199 177 173 192 181 154 185 173 192 204 174 172 155 160 159 165
186 174 177 175 178 185 175 181 187 179 187 179 177 172 165 167 169 174 175 181 183 175 178 175 175 173 176 174 180 168 167 158 147 152 142 135 133 130 123 120 115 105 101 120 121 135 141 186 186 178 185 177 193 190 182 189 177 200 175 180 207 196 180 183 176 164 163 174 205 176 176 183 187 189 163 189 192 209 201 176 172 176 166 157 162
245 217 186 176 186 191 177 179 186 182 184 180 172 178 168 165 167 171 180 183 184 179 178 174 170 171 172 169 167 167 159 156 146 137 133 129 129 129 127 111 108 117 120 124 142 115 112 264 227 156 161 172 194 193 185 188 182 199 188 175 201 184 197 175 207 175 175 157 155 169 169 188 189 179 187 206 196 227 216 179 184 178 179 158 164
353 288 136 224 208 189 179 172 180 181 182 168 158 184 174 171 170 170 180 184 184 179 181 175 166 170 168 166 165 160 160 145 138 136 135 133 129 126 127 135 133 130 140 139 137 133 124 181 265 109 161 203 186 202 200 188 180 206 194 186 179 181 152 312 183 193 154 149 132 178 179 190 186 193 182 196 198 195 192 176 208 158 202 170 171
91 126 291 257 244 194 171 172 178 176 167 162 165 176 182 180 174 172 176 182 181 179 187 175 170 165 164 166 161 158 153 140 141 140 138 137 138 137 139 123 125 138 136 136 145 142 148 137 132 174 190 190 202 189 214 195 215 140 199 180 166 189 183 185 158 178 154 160 147 170 194 185 188 182 186 196 203 171 174 190 223 163 218 142 185
84 154 242 275 262 206 174 162 163 133 133 147 177 192 181 176 177 174 175 178 177 181 187 182 176 167 162 161 166 157 152 156 152 145 141 139 137 135 128 131 131 128 122 137 144 133 151 150 159 171 189 206 206 209 209 217 228 185 174 192 184 210 219 182 195 161 173 165 164 187 179 190 199 196 169 203 185 164 181 206 220 166 170 110 195
32 257 300 293 286 256 147 123 106 109 128 158 232 228 189 181 178 175 176 177 178 189 179 194 173 171 158 169 161 155 154 158 151 148 143 139 137 136 134 132 136 126 133 155 150 163 158 173 175 187 195 190 202 205 218 243 223 230 169 167 232 226 196 197 189 166 190 157 215 203 185 175 199 168 207 180 162 170 184 227 217 146 161 178 204
37 34 10 276 263 33 94 129 127 154 176 197 192 210 191 183 177 179 175 179 179 194 186 187 181 173 166 170 156 151 155 150 150 148 146 143 147 140 137 137 133 129 160 152 147 145 151 174 188 170 171 282 172 185 227 222 229 194 210 189 190 207 222 174 182 180 186 175 184 184 178 177 190 178 183 175 163 179 181 200 163 175 163 186 212
39 53 41 12 18 204 184 164 149 158 176 217 224 222 197 183 179 165 167 153 163 227 192 194 186 169 169 164 158 156 158 156 154 159 154 151 150 142 145 141 141 142 155 159 131 172 180 177 156 126 145 140 183 155 147 197 189 188 192 211 201 195 201 155 178 177 180 197 146 205 173 173 167 172 186 188 161 185 199 194 159 182 156 190 210
26 32 50 39 34 355 302 182 163 165 181 208 215 228 226 195 181 163 148 133 183 210 229 199 177 166 168 168 163 164 164 160 160 159 157 151 151 149 146 155 147 156 153 137 132 178 163 154 133 148 127 126 139 150 157 180 176 174 181 171 178 163 167 163 175 175 156 160 141 242 171 173 138 170 196 197 178 193 210 176 152 189 152 194 182
27 27 22 33 25 19 10 350 287 195 190 209 227 227 234 220 219 140 136 145 173 229 208 188 170 170 173 178 168 166 161 160 159 159 158 154 153 154 151 161 150 156 138 143 162 147 173 151 149 148 143 143 140 160 160 167 145 183 177 153 171 154 158 178 183 203 154 150 153 169 226 152 172 189 183 209 184 205 231 156 177 172 185 172 183
22 23 22 20 20 24 9 357 353 324 222 217 223 226 228 225 255 334 142 155 160 179 251 187 181 171 186 170 175 165 163 161 161 159 159 156 157 153 150 153 158 150 140 170 152 173 173 153 178 189 185 142 171 145 158 157 166 266 164 166 144 140 176 194 129 155 116 120 160 168 164 189 153 206 196 206 195 199 228 172 184 184 181 159 184
23 20 15 16 19 15 8 360 357 354 337 246 223 225 224 224 205 202 204 170 156 166 216 194 172 185 172 166 166 164 162 162 157 153 156 159 156 147 151 155 151 139 153 156 160 150 191 153 180 166 141 164 147 171 163 149 164 188 229 99 129 148 154 119 178 224 155 159 196 149 190 180 189 183 168 214 209 201 237 243 192 211 203 163 169
26 24 19 17 16 11 10 2 359 357 352 345 272 220 330 273 265 228 211 190 183 158 194 191 171 168 155 163 163 160 157 154 152 151 157 157 148 151 153 142 136 140 151 151 150 157 156 194 119 172 103 90 66 31 24 15 347 182 171 200 204 215 166 151 170 166 159 177 194 156 175 191 189 77 196 191 204 190 209 221 207 221 241 240 183
24 23 20 19 14 12 10 7 4 1 359 354 352 309 246 231 213 282 255 240 193 174 170 173 158 151 154 144 139 144 145 146 146 151 151 150 149 150 148 137 136 139 138 131 146 144 166 133 124 120 134 71 44 32 26 3 3 347 228 180 212 208 227 186 198 200 182 215 191 191 99 64 64 61 59 42 35 33 251 216 215 221 237 229 223
25 20 22 19 17 14 12 12 11 6 2 358 354 350 326 240 202 188 224 234 233 169 156 142 135 131 130 135 133 131 136 137 139 137 137 140 139 132 132 136 134 130 131 131 136 145 147 147 152 121 64 53 43 39 360 2 5 347 348 300 168 206 211 212 211 206 197 213 205 142 80 70 60 59 57 51 40 46 58 38 7 335 253 232 223
28 26 24 22 22 21 19 16 14 12 8 359 358 349 346 339 50 99 180 187 211 158 139 134 129 128 127 128 127 125 125 126 125 124 118 105 86 72 81 111 121 120 115 122 132 141 150 155 130 88 73 62 46 15 353 1 353 7 355 347 355 184 210 209 211 216 192 194 212 179 116 112 121 113 122 102 78 33 32 51 47 60 66 15 321
32 30 27 27 27 25 22 21 21 21 18 13 9 6 2 341 354 55 38 75 77 88 113 116 122 121 120 119 117 116 112 110 113 112 106 103 99 95 90 80 76 108 115 117 128 123 87 78 84 86 78 72 59 9 3 360 2 359 7 337 321 295 229 214 212 203 198 189 194 183 159 158 175 65 90 151 145 132 113 35 24 7 356 6 109
36 32 33 33 34 30 27 26 26 27 27 22 19 27 3 344 325 38 60 55 76 85 78 67 71 98 110 117 117 114 107 98 96 97 98 100 104 101 94 87 76 75 102 103 96 104 111 91 89 88 82 69 63 25 1 9 3 357 349 336 296 216 188 204 264 255 330 265 180 165 160 214 93 76 281 279 252 160 128 96 12 325 301 279 286
41 40 39 37 38 39 35 34 34 37 37 35 32 33 24 356 332 5 59 51 56 64 67 71 59 41 42 58 88 100 101 102 98 93 91 89 90 92 93 91 85 68 80 95 101 98 99 97 94 94 85 70 55 9 8 9 7 354 347 334 297 26 346 27 186 299 108 232 91 247 206 195 191 170 18 344 278 266 183 180 202 229 250 231 229
44 45 44 43 43 42 42 38 33 35 40 40 37 27 36 22 358 9 42 56 54 63 62 60 70 62 46 51 66 74 83 85 84 82 82 85 86 88 88 91 96 99 98 100 104 101 98 100 95 89 87 73 44 9 16 13 8 357 341 321 288 289 242 188 149 116 263 31 331 337 319 308 57 54 27 10 21 6 340 309 288 264 251 250 243
47 47 46 46 47 49 45 39 32 31 36 42 39 30 29 44 18 25 35 36 42 51 43 36 45 53 65 51 56 76 75 73 77 79 81 80 81 84 87 85 86 89 92 102 104 108 108 105 101 94 91 73 46 22 16 16 10 2 338 291 223 212 226 308 146 133 259 156 32 6 315 10 57 63 22 27 25 352 321 297 288 281 277 274 268
57 54 54 51 49 50 49 50 44 35 37 34 25 23 29 33 41 26 36 41 40 41 36 29 35 35 41 44 49 70 80 91 83 81 80 83 89 87 81 74 77 82 89 89 89 87 87 94 97 98 86 72 52 22 19 16 12 4 355 343 326 248 166 186 172 345 261 171 79 39 12 19 95 61 29 32 16 355 312 300 290 289 288 285 291
55 55 56 54 53 51 48 46 44 40 31 36 27 27 31 37 33 31 33 29 30 32 32 37 37 33 29 39 40 54 62 67 69 72 80 77 71 67 66 70 88 91 87 87 89 83 80 73 69 63 62 81 62 38 24 19 12 7 352 343 326 332 84 321 264 162 314 65 77 52 27 49 72 61 44 40 19 351 327 310 304 297 290 281 275
50 48 51 53 51 47 48 46 42 41 33 31 26 33 40 41 38 35 39 42 34 30 30 36 37 36 37 41 41 38 48 57 61 54 56 62 61 61 59 56 70 79 78 86 89 93 90 83 78 76 23 55 80 57 33 21 12 12 4 346 345 354 355 24 353 324 5 346 104 60 53 57 66 62 46 42 32 17 346 334 330 315 298 287 293
50 49 51 57 54 52 48 48 46 44 36 35 26 33 37 40 40 40 43 44 41 39 37 41 39 33 38 51 49 44 47 54 63 64 57 54 49 56 60 57 54 70 84 77 80 82 82 77 66 58 56 42 58 67 49 28 15 9 7 352 355 14 15 9 348 351 336 313 99 106 74 75 76 60 47 34 38 38 360 335 325 310 301 301 4
47 42 37 45 49 52 53 50 52 50 47 45 39 39 34 30 34 41 42 43 38 41 48 42 40 38 37 41 47 48 53 51 51 52 61 67 74 75 78 92 85 70 70 81 76 79 82 84 88 93 87 72 45 59 71 41 27 15 14 3 20 29 8 352 339 328 319 319 313 91 95 80 61 44 30 22 27 15 2 316 303 288 300 337 335
53 44 39 43 41 43 46 49 47 49 48 46 50 53 46 37 39 44 42 41 45 54 57 52 50 46 44 45 47 53 46 50 66 72 66 64 71 87 95 85 89 115 127 119 118 113 101 93 87 92 108 118 86 59 92 73 51 35 25 27 30 38 15 342 338 330 334 344 341 358 71 27 17 17 10 357 344 341 308 281 281 281 295 308 314
48 44 39 39 41 39 41 42 41 44 48 44 44 52 52 46 46 46 47 47 48 51 57 62 63 62 58 55 47 53 60 55 56 59 64 54 49 54 62 74 84 82 83 108 124 125 135 144 152 148 135 137 133 113 102 108 100 71 57 50 36 30 350 343 347 328 331 327 334 314 25 18 357 350 346 336 323 310 307 277 273 277 282 291 289
52 48 42 40 44 42 43 42 42 42 47 49 49 54 57 62 56 47 52 56 56 57 58 58 58 61 63 60 57 53 50 49 49 64 79 74 59 67 64 50 36 60 85 87 88 103 142 149 149 143 146 130 137 134 132 119 121 120 108 103 122 302 327 350 342 309 309 298 309 2 358 348 341 326 313 307 306 299 278 279 283 283 281 285 283
62 57 52 50 45 42 41 42 40 40 38 41 45 47 50 57 63 73 63 61 61 60 59 60 63 63 65 66 69 67 60 46 41 36 45 64 66 53 84 74 67 53 44 62 67 46 31 44 47 58 76 84 74 110 134 145 157 153 176 191 220 202 235 222 269 298 321 354 1 334 343 333 308 294 289 289 283 272 267 266 263 263 265 264 258
73 77 57 50 52 46 42 40 42 42 46 43 41 39 39 37 41 47 52 58 60 61 65 68 62 51 47 62 65 71 67 69 75 69 57 42 39 41 40 51 50 56 54 56 60 74 90 90 62 84 73 79 119 93 109 124 152 155 190 221 241 226 243 233 238 287 304 309 313 308 288 278 278 274 279 276 271 269 248 247 253 254 257 262 266
43 40 39 52 54 49 47 42 38 29 25 30 47 49 46 40 42 41 39 38 42 55 58 55 66 83 80 62 47 27 47 54 50 72 80 68 67 73 61 51 41 43 71 76 83 68 110 98 109 123 151 159 175 144 81 57 36 20 8 335 234 223 224 246 264 245 257 276 285 277 283 278 273 272 268 272 276 282 287 252 228 232 239 249 257
34 26 20 29 32 39 39 39 33 36 41 30 18 21 37 34 40 38 44 50 42 31 40 49 52 47 38 52 66 315 326 73 44 38 38 37 40 42 58 44 22 10 2 12 29 52 37 33 22 31 19 39 86 67 43 23 16 8 354 342 344 341 353 355 350 2 344 324 308 287 269 256 252 248 251 244 245 245 250 284 313 305 269 240 239
34 31 31 30 19 25 28 28 24 16 11 23 28 25 17 23 19 39 38 31 41 48 44 41 36 42 49 38 40 38 41 54 88 82 63 44 31 26 38 64 51 32 29 15 5 26 24 14 360 24 12 22 30 47 38 37 39 31 354 339 336 342 344 319 22 19 329 305 294 294 312 307 305 307 309 311 322 321 316 313 309 311 315 315 308
42 48 37 40 29 13 25 17 9 11 11 8 352 21 11 20 21 20 27 23 16 23 47 55 39 28 16 22 34 34 36 35 32 78 109 88 38 42 29 41 77 84 69 53 39 37 12 355 353 43 42 11 20 37 36 23 13 359 349 289 292 298 300 290 299 313 302 297 293 300 301 318 319 318 322 324 328 333 328 319 315 316 310 309 322
19 15 20 12 9 4 1 11 5 359 4 11 353 350 7 1 13 17 19 6 2 3 31 30 48 42 12 344 29 25 24 25 28 9 26 134 139 102 62 51 82 112 108 107 86 85 57 34 12 4 57 87 78 59 24 6 353 341 317 316 308 305 290 284 283 287 246 245 282 302 317 319 324 332 335 329 327 319 320 321 314 316 314 315 314